Jerez de la Frontera, Spain

6:10 AM CET on December 04, 2016 (GMT +0100)
Jerez de la Frontera

Weather History for LEJR - November, 2012

Change the Weather History Date:

Tuesday, November 13, 2012

  Actual Average Record
Temperature  
Mean Temperature 58 °F -  
Max Temperature 67 °F 65 °F 79 °F (2013)
Min Temperature 50 °F 46 °F 37 °F (2001)
Degree Days  
Heating Degree Days 6    
Growing Degree Days 8 (Base 50)    
Moisture  
Dew Point 47 °F    
Average Humidity 70    
Maximum Humidity 88    
Minimum Humidity 46    
Precipitation  
Precipitation 0.00 in - - ()
Sea Level Pressure  
Sea Level Pressure 30.04 in    
Wind  
Wind Speed 9 mph ()    
Max Wind Speed 18 mph    
Max Gust Speed -    
Averages and records for this station are not official NWS values.
T = Trace of Precipitation, MM = Missing Value Source: Averaged Metar Reports

Daily Weather History Graph

Daily Weather History Graph

Search for Another Location

Airport or City:

Trip Planner

Search our weather history database for the weather conditions in past years. The results will help you decide how hot, cold, wet, or windy it might be!

Date:

Astronomy

Nov. 13, 2012 Rise Set
Actual Time 8:00 AM CET 6:16 PM CET
Civil Twilight 7:32 AM CET 6:43 PM CET
Nautical Twilight 7:01 AM CET 7:14 PM CET
Astronomical Twilight 6:31 AM CET 7:45 PM CET
Moon 7:21 AM CET (11/13) 5:58 PM CET (11/13)
Length of Visible Light 11h 10m
Length of Day
10h 15m
Waning Crescent, 0% of the Moon is Illuminated
Nov 13
Waning Crescent
Nov 13
New
Nov 20
First Quarter
Nov 28
Full
Dec 6
Last Quarter

Hourly Weather History & Observations

Time (CET) Temp. Dew Point Humidity Pressure Visibility Wind Dir Wind Speed Gust Speed Precip Events Conditions
1:00 AM 53 °F 50 °F 86% 30.12 in - NNW 9.2 mph - -  
5:00 AM 53.6 °F 48.2 °F 82% 30.06 in - NNE 11.5 mph - N/A   Clear
5:30 AM 51.8 °F 48.2 °F 88% 30.06 in - NNE 11.5 mph - N/A   Clear
6:00 AM 53.6 °F 46.4 °F 77% 30.06 in - NNE 15.0 mph - N/A   Clear
6:30 AM 51.8 °F 46.4 °F 82% 30.06 in - NNE 10.4 mph - N/A   Clear
7:00 AM 51 °F 48 °F 84% 30.09 in 25 mi NNE 9.2 mph - -  
7:00 AM 51.8 °F 46.4 °F 82% 30.06 in - NNE 8.1 mph - N/A   Clear
7:30 AM 51.8 °F 46.4 °F 82% 30.06 in - NNE 9.2 mph - N/A   Clear
8:00 AM 51.8 °F 46.4 °F 82% 30.09 in - NNE 11.5 mph - N/A   Clear
8:30 AM 51.8 °F 46.4 °F 82% 30.09 in - North 11.5 mph - N/A   Clear
9:00 AM 51.8 °F 46.4 °F 82% 30.09 in - North 13.8 mph - N/A   Clear
9:30 AM 51.8 °F 46.4 °F 82% 30.09 in - North 12.7 mph - N/A   Clear
10:00 AM 55.4 °F 48.2 °F 77% 30.09 in - NNE 12.7 mph - N/A   Clear
10:30 AM 57.2 °F 48.2 °F 72% 30.06 in - North 11.5 mph - N/A   Clear
11:00 AM 57.2 °F 46.4 °F 67% 30.09 in - NNE 13.8 mph - N/A   Clear
11:30 AM 59.0 °F 48.2 °F 67% 30.09 in - NNE 10.4 mph - N/A   Clear
12:00 PM 60.8 °F 48.2 °F 63% 30.09 in - North 11.5 mph - N/A   Clear
12:30 PM 60.8 °F 46.4 °F 59% 30.06 in - NNE 13.8 mph - N/A   Clear
1:00 PM 64 °F 49 °F 49% 30.06 in 22 mi North 18.4 mph - -  
1:00 PM 62.6 °F 46.4 °F 55% 30.06 in - NNE 17.3 mph - N/A   Clear
1:30 PM 62.6 °F 48.2 °F 59% 30.04 in - NNE 15.0 mph - N/A   Clear
2:00 PM 64.4 °F 46.4 °F 52% 30.04 in - North 15.0 mph - N/A   Clear
2:30 PM 64.4 °F 46.4 °F 52% 30.04 in - NNE 13.8 mph - N/A   Clear
3:00 PM 66.2 °F 46.4 °F 49% 30.01 in - NNE 13.8 mph - N/A   Clear
3:30 PM 66.2 °F 46.4 °F 49% 30.01 in - North 12.7 mph - N/A   Clear
4:00 PM 66.2 °F 44.6 °F 46% 29.98 in - North 15.0 mph - N/A   Clear
4:30 PM 66.2 °F 46.4 °F 49% 29.98 in - North 12.7 mph - N/A   Clear
5:00 PM 66.2 °F 46.4 °F 49% 29.98 in - North 12.7 mph - N/A   Clear
5:30 PM 64.4 °F 46.4 °F 52% 29.98 in - North 9.2 mph - N/A   Clear
6:00 PM 62.6 °F 46.4 °F 55% 29.98 in - NNE 4.6 mph - N/A   Clear
6:30 PM 59.0 °F 48.2 °F 67% 29.98 in - North 5.8 mph - N/A   Clear
7:00 PM 55 °F 49 °F 74% 30.00 in 22 mi NNE 4.6 mph - -  
7:00 PM 55.4 °F 48.2 °F 77% 29.98 in - North 5.8 mph - N/A   Clear
7:30 PM 55.4 °F 46.4 °F 72% 30.01 in - Variable 2.3 mph - N/A   Clear
8:00 PM 57.2 °F 46.4 °F 67% 30.01 in - WNW 4.6 mph - N/A   Clear
8:30 PM 55.4 °F 46.4 °F 72% 30.01 in - Variable 1.2 mph - N/A   Clear
9:00 PM 53.6 °F 46.4 °F 77% 30.01 in - Calm Calm - N/A   Clear
9:30 PM 51.8 °F 46.4 °F 82% 30.01 in - Variable 1.2 mph - N/A   Clear
10:00 PM 51.8 °F 46.4 °F 82% 30.01 in - Variable 1.2 mph - N/A   Clear
10:30 PM 51.8 °F 48.2 °F 88% 30.01 in - Calm Calm - N/A   Clear
11:00 PM 50.0 °F 46.4 °F 87% 30.01 in - Variable 1.2 mph - N/A   Clear